Terminal Aerodrome Forecast
Issued by NWS Mobile, AL

Home | Current Version | Previous Version | Text Only | Print | Product List | Glossary On
Versions: 1 2 3 4 5 6 7 8 9 10 11 12 13 14 15 16 17 18 19 20 21 22 23 24 25
000
FTUS44 KMOB 050523
TAFPNS
TAF
KPNS 050523Z 0506/0606 VRB03KT P6SM FEW250
     FM051600 06005KT P6SM VCSH FEW030 SCT250
     FM052000 18007KT P6SM VCTS SCT035CB PROB30 0520/0602 5SM -TSRA
      BKN035CB
     FM060200 VRB03KT P6SM FEW040 SCT250=

USA.gov is the U.S. government's official web portal to all federal, state and local government web resources and services.